VLG3283 GCXO-LEMG

Flight info

Callsign VLG3283
Flight time N/A
Altitude 36000
Route KORAL UG5 SONSO DCT ADUBI N871 VJF
Aircraft A321/M-SDE3FGHIRWY/LB1

Departure

Time 2026-05-01 15:13
Airport Tenerife Norte-Ciudad de La Laguna Airport (GCXO)

Arrival

Time N/A
Airport Málaga-Costa del Sol Airport (LEMG)
Time Latitude Longitude Altitude Speed Heading
2026-05-01 14:57 28.48634 -16.34549 2061 ft 0 kts 21°
2026-05-01 15:04 28.48629 -16.34551 2061 ft 4 kts 21°
2026-05-01 15:04 28.48604 -16.34562 2061 ft 4 kts 20°
2026-05-01 15:05 28.48579 -16.34572 2061 ft 4 kts 21°
2026-05-01 15:05 28.48555 -16.34586 2061 ft 4 kts 40°
2026-05-01 15:05 28.48539 -16.34608 2061 ft 4 kts 77°
2026-05-01 15:05 28.48539 -16.34630 2061 ft 1 kts 111°
2026-05-01 15:06 28.48541 -16.34633 2061 ft 0 kts 111°
2026-05-01 15:08 28.48540 -16.34631 2061 ft 2 kts 111°
2026-05-01 15:08 28.48520 -16.34572 2061 ft 13 kts 111°
2026-05-01 15:09 28.48479 -16.34446 2061 ft 21 kts 110°
2026-05-01 15:09 28.48419 -16.34267 2061 ft 28 kts 111°
2026-05-01 15:09 28.48344 -16.34043 2061 ft 32 kts 110°
2026-05-01 15:09 28.48267 -16.33807 2058 ft 32 kts 110°
2026-05-01 15:10 28.48189 -16.33565 2052 ft 33 kts 110°
2026-05-01 15:10 28.48031 -16.33097 2035 ft 31 kts 111°
2026-05-01 15:10 28.47959 -16.32877 2026 ft 25 kts 110°
2026-05-01 15:11 28.47902 -16.32708 2018 ft 23 kts 111°
2026-05-01 15:11 28.47749 -16.32550 2009 ft 11 kts 233°
2026-05-01 15:11 28.47759 -16.32624 2013 ft 6 kts 290°
2026-05-01 15:12 28.47759 -16.32626 2014 ft 0 kts 290°
2026-05-01 15:12 28.47804 -16.32763 2016 ft 50 kts 290°
2026-05-01 15:12 28.48011 -16.33385 2045 ft 116 kts 290°
2026-05-01 15:13 28.49255 -16.37038 3250 ft 176 kts 294°
2026-05-01 15:14 28.50263 -16.39889 3757 ft 216 kts 293°
2026-05-01 15:14 28.50850 -16.41563 3906 ft 240 kts 292°
2026-05-01 15:14 28.52173 -16.45372 4903 ft 269 kts 291°
2026-05-01 15:15 28.53548 -16.49361 6472 ft 273 kts 290°
2026-05-01 15:15 28.55444 -16.53113 7947 ft 282 kts 317°
2026-05-01 15:16 28.59122 -16.54644 9395 ft 295 kts
2026-05-01 15:16 28.62898 -16.52736 10463 ft 321 kts 47°
2026-05-01 15:17 28.64193 -16.47713 10802 ft 359 kts 103°
2026-05-01 15:18 28.60395 -16.40265 12439 ft 371 kts 122°
2026-05-01 15:18 28.59077 -16.37725 13047 ft 374 kts 122°
2026-05-01 15:19 28.55339 -16.29813 14771 ft 385 kts 110°
2026-05-01 15:19 28.54678 -16.23706 15760 ft 397 kts 85°
2026-05-01 15:19 28.55185 -16.20603 16264 ft 402 kts 75°
2026-05-01 15:20 28.56681 -16.14434 17365 ft 408 kts 75°
2026-05-01 15:20 28.57422 -16.11314 17877 ft 411 kts 75°
2026-05-01 15:20 28.58166 -16.08160 18397 ft 414 kts 75°
2026-05-01 15:21 28.58916 -16.04980 18849 ft 418 kts 75°
2026-05-01 15:21 28.59673 -16.01775 19306 ft 421 kts 75°
2026-05-01 15:21 28.60436 -15.98547 19772 ft 424 kts 75°
2026-05-01 15:21 28.61207 -15.95298 20243 ft 427 kts 75°
2026-05-01 15:22 28.62766 -15.88728 21189 ft 433 kts 75°
2026-05-01 15:22 28.63551 -15.85407 21655 ft 436 kts 75°
2026-05-01 15:22 28.64339 -15.82070 22100 ft 439 kts 75°
2026-05-01 15:23 28.65132 -15.78702 22554 ft 442 kts 75°
2026-05-01 15:23 28.65917 -15.75356 22973 ft 445 kts 75°
2026-05-01 15:23 28.66716 -15.71942 23401 ft 448 kts 75°
2026-05-01 15:23 28.67523 -15.68506 23808 ft 451 kts 75°
2026-05-01 15:24 28.68337 -15.65047 24155 ft 453 kts 75°
2026-05-01 15:24 28.69155 -15.61569 24489 ft 456 kts 75°
2026-05-01 15:24 28.69985 -15.58030 24848 ft 459 kts 75°
2026-05-01 15:24 28.70808 -15.54510 25199 ft 461 kts 75°
2026-05-01 15:25 28.71634 -15.50972 25546 ft 463 kts 75°
2026-05-01 15:25 28.72450 -15.47463 25888 ft 465 kts 75°
2026-05-01 15:25 28.73282 -15.43890 26236 ft 468 kts 75°
2026-05-01 15:25 28.74119 -15.40301 26582 ft 470 kts 75°
2026-05-01 15:26 28.74957 -15.36694 26908 ft 472 kts 75°
2026-05-01 15:26 28.75795 -15.33070 27253 ft 474 kts 76°
2026-05-01 15:26 28.76632 -15.29436 27569 ft 476 kts 76°
2026-05-01 15:26 28.77473 -15.25776 27887 ft 478 kts 76°
2026-05-01 15:27 28.78321 -15.22100 28199 ft 481 kts 75°
2026-05-01 15:27 28.79175 -15.18408 28508 ft 483 kts 75°
2026-05-01 15:27 28.80035 -15.14700 28808 ft 485 kts 75°
2026-05-01 15:28 28.81760 -15.07234 29412 ft 489 kts 76°
2026-05-01 15:28 28.82621 -15.03474 29717 ft 491 kts 76°
2026-05-01 15:28 28.83483 -14.99696 30020 ft 493 kts 76°
2026-05-01 15:29 28.85214 -14.92113 30656 ft 494 kts 76°
2026-05-01 15:29 28.86073 -14.88325 31032 ft 493 kts 76°
2026-05-01 15:29 28.87790 -14.80761 31695 ft 492 kts 76°
2026-05-01 15:30 28.89224 -14.74478 32232 ft 492 kts 76°
2026-05-01 15:31 28.92933 -14.58092 33595 ft 492 kts 76°
2026-05-01 15:31 28.94637 -14.50531 34200 ft 492 kts 76°
2026-05-01 15:32 28.96339 -14.42971 34726 ft 491 kts 76°
2026-05-01 15:32 28.98032 -14.35415 35257 ft 491 kts 76°
2026-05-01 15:33 29.00277 -14.25373 35964 ft 490 kts 76°
2026-05-01 15:34 29.02778 -14.14080 36163 ft 486 kts 76°